London, United Kingdom

11:00 PM BST on July 24, 2016 (GMT +0100)
Heathrow

Weather History for EGLL - July, 2013

Change the Weather History Date:

Wednesday, July 10, 2013

  Actual Average Record
Temperature  
Mean Temperature 64 °F -  
Max Temperature 76 °F 71 °F 84 °F (2005)
Min Temperature 53 °F 55 °F 50 °F (2004)
Growing Degree Days 14 (Base 50)    
Moisture  
Dew Point 51 °F    
Average Humidity 59    
Maximum Humidity 77    
Minimum Humidity 33    
Precipitation  
Precipitation 0.00 in - - ()
Sea Level Pressure  
Sea Level Pressure 30.29 in    
Wind  
Wind Speed 7 mph ()    
Max Wind Speed 15 mph    
Max Gust Speed -    
Visibility 11.3 miles    
Events      
Averages and records for this station are not official NWS values.
T = Trace of Precipitation, MM = Missing Value Source: Averaged Metar Reports

Daily Weather History Graph

Daily Weather History Graph

Search for Another Location

Airport or City:

Trip Planner

Search our weather history database for the weather conditions in past years. The results will help you decide how hot, cold, wet, or windy it might be!

Date:

Astronomy

Jul. 10, 2013 Rise Set
Actual Time 4:56 AM BST 9:16 PM BST
Civil Twilight 4:11 AM BST 10:02 PM BST
Nautical Twilight 3:03 AM BST 11:09 PM BST
Astronomical Twilight 1:39 AM BST 12:34 AM BST
Moon 7:25 AM BST (7/10) 9:53 PM BST (7/10)
Length of Visible Light 17h 51m
Length of Day
16h 20m
Waxing Crescent, 4% of the Moon is Illuminated
Jul 10
Waxing Crescent
Jul 16
First Quarter
Jul 22
Full
Jul 29
Last Quarter
Aug 6
New

Hourly Weather History & Observations

Time (BST) Temp. Dew Point Humidity Pressure Visibility Wind Dir Wind Speed Gust Speed Precip Events Conditions
12:20 AM 60.8 °F 50.0 °F 68% 30.30 in - East 3.5 mph - N/A   Clear
12:50 AM 54 °F 46 °F 67% 30.32 in 17 mi NE 8.1 mph - -  
12:50 AM 62.6 °F 51.8 °F 68% 30.30 in - East 3.5 mph - N/A   Clear
1:20 AM 62.6 °F 51.8 °F 68% 30.30 in - Calm Calm - N/A   Clear
1:50 AM 62.6 °F 51.8 °F 68% 30.30 in 6.2 mi Variable 2.3 mph - N/A   Unknown
2:20 AM 60.8 °F 51.8 °F 72% 30.27 in 6.2 mi NE 3.5 mph - N/A   Unknown
2:50 AM 54 °F 44 °F 60% 30.32 in 19 mi NE 8.1 mph - -   Overcast
2:50 AM 60.8 °F 51.8 °F 72% 30.27 in 6.2 mi NE 3.5 mph - N/A   Unknown
3:20 AM 59.0 °F 51.8 °F 77% 30.27 in - NE 4.6 mph - N/A   Clear
3:50 AM 54 °F 44 °F 59% 30.31 in 19 mi NNE 8.1 mph - -   Overcast
3:50 AM 59.0 °F 51.8 °F 77% 30.27 in - NE 5.8 mph - N/A   Clear
4:50 AM 54 °F 44 °F 59% 30.30 in 19 mi NNE 9.2 mph - -   Overcast
4:50 AM 57.2 °F 50.0 °F 77% 30.30 in - NE 4.6 mph - N/A   Clear
5:20 AM 57.2 °F 48.2 °F 72% 30.30 in - NE 5.8 mph - N/A   Clear
5:50 AM 54 °F 44 °F 59% 30.31 in 19 mi NE 8.1 mph - -   Overcast
5:50 AM 57.2 °F 44.6 °F 63% 30.30 in - NE 4.6 mph - N/A   Clear
6:20 AM 57.2 °F 44.6 °F 63% 30.30 in - NE 4.6 mph - N/A   Clear
6:50 AM 54 °F 43 °F 58% 30.31 in 22 mi ENE 10.4 mph - -  
6:50 AM 59.0 °F 48.2 °F 67% 30.30 in - NE 8.1 mph - N/A   Clear
7:20 AM 62.6 °F 50.0 °F 63% 30.30 in - ENE 8.1 mph - N/A   Clear
7:50 AM 64.4 °F 50.0 °F 59% 30.30 in - ENE 9.2 mph - N/A   Clear
8:20 AM 66.2 °F 50.0 °F 56% 30.30 in - ENE 11.5 mph - N/A   Clear
8:50 AM 56 °F 43 °F 52% 30.32 in 22 mi NE 6.9 mph - -   Mostly Cloudy
8:50 AM 68.0 °F 51.8 °F 56% 30.30 in - NE 9.2 mph - N/A   Clear
9:20 AM 69.8 °F 53.6 °F 56% 30.30 in - ENE 10.4 mph - N/A   Clear
9:50 AM 71 °F 53 °F 43% 30.30 in 19 mi NE 9.2 mph - -  
9:50 AM 71.6 °F 53.6 °F 53% 30.30 in - NE 9.2 mph - N/A   Clear
10:20 AM 71.6 °F 53.6 °F 53% 30.30 in - ENE 10.4 mph - N/A   Clear
10:50 AM 73.4 °F 51.8 °F 47% 30.30 in 6.2 mi NE 10.4 mph - N/A   Partly Cloudy
11:20 AM 73.4 °F 51.8 °F 47% 30.30 in 6.2 mi NE 10.4 mph - N/A   Partly Cloudy
11:50 AM 64 °F 45 °F 39% 30.30 in 17 mi ENE 9.2 mph - -  
11:50 AM 73.4 °F 55.4 °F 53% 30.30 in 6.2 mi NE 9.2 mph - N/A   Partly Cloudy
12:20 PM 73.4 °F 57.2 °F 57% 30.27 in 6.2 mi NE 10.4 mph - N/A   Scattered Clouds
12:50 PM 74 °F 56 °F 44% 30.29 in 17 mi NNE 12.7 mph - -   Mostly Cloudy
12:50 PM 73.4 °F 57.2 °F 57% 30.27 in 6.2 mi ENE 12.7 mph - N/A   Scattered Clouds
1:20 PM 73.4 °F 57.2 °F 57% 30.27 in 6.2 mi NE 11.5 mph - N/A   Scattered Clouds
1:50 PM 69 °F 46 °F 33% 30.28 in 25 mi NNE 8.1 mph - -  
1:50 PM 75.2 °F 57.2 °F 53% 30.27 in 6.2 mi NE 12.7 mph - N/A   Scattered Clouds
2:20 PM 75.2 °F 57.2 °F 53% 30.27 in 6.2 mi NE 12.7 mph - N/A   Scattered Clouds
2:50 PM 75.2 °F 57.2 °F 53% 30.27 in 6.2 mi NE 11.5 mph - N/A   Scattered Clouds
3:20 PM 75.2 °F 57.2 °F 53% 30.27 in 6.2 mi NNE 11.5 mph - N/A   Scattered Clouds
3:50 PM 74 °F 55 °F 42% 30.27 in 14 mi NNE 12.7 mph - -   Scattered Clouds
3:50 PM 73.4 °F 57.2 °F 57% 30.27 in 6.2 mi NNE 11.5 mph - N/A   Scattered Clouds
4:20 PM 73.4 °F 55.4 °F 53% 30.27 in 6.2 mi NE 10.4 mph - N/A   Scattered Clouds
4:50 PM 73.4 °F 55.4 °F 53% 30.27 in 6.2 mi NNE 11.5 mph - N/A   Scattered Clouds
5:20 PM 73.4 °F 55.4 °F 53% 30.27 in 6.2 mi North 10.4 mph - N/A   Partly Cloudy
5:50 PM 72 °F 53 °F 41% 30.26 in 14 mi NNE 13.8 mph - -   Scattered Clouds
5:50 PM 71.6 °F 53.6 °F 53% 30.24 in 6.2 mi NNE 11.5 mph - N/A   Partly Cloudy
6:20 PM 71.6 °F 53.6 °F 53% 30.24 in 6.2 mi North 10.4 mph - N/A   Partly Cloudy
6:50 PM 69 °F 52 °F 45% 30.26 in 14 mi NNE 15.0 mph - -  
6:50 PM 69.8 °F 53.6 °F 56% 30.24 in - North 11.5 mph - N/A   Clear
7:20 PM 68.0 °F 53.6 °F 60% 30.24 in - North 9.2 mph - N/A   Clear
7:50 PM 67 °F 52 °F 49% 30.27 in 17 mi North 12.7 mph - -  
7:50 PM 66.2 °F 53.6 °F 64% 30.27 in - NNE 10.4 mph - N/A   Clear
8:20 PM 64.4 °F 53.6 °F 68% 30.27 in - NNE 10.4 mph - N/A   Clear
8:50 PM 63 °F 50 °F 54% 30.28 in 17 mi NNE 12.7 mph - -  
8:50 PM 62.6 °F 51.8 °F 68% 30.27 in - North 10.4 mph - N/A   Clear
9:20 PM 60.8 °F 51.8 °F 72% 30.27 in - NNE 10.4 mph - N/A   Clear
9:50 PM 59 °F 49 °F 60% 30.29 in 18 mi NNE 12.7 mph - -  
9:50 PM 59.0 °F 50.0 °F 72% 30.27 in - NNE 10.4 mph - N/A   Clear
10:20 PM 57.2 °F 50.0 °F 77% 30.30 in - NNE 8.1 mph - N/A   Clear
10:50 PM 57 °F 48 °F 64% 30.30 in 19 mi NNE 9.2 mph - -  
10:50 PM 57.2 °F 50.0 °F 77% 30.30 in - NNE 9.2 mph - N/A   Clear
11:20 PM 55.4 °F 48.2 °F 77% 30.30 in - NNE 9.2 mph - N/A   Clear
11:50 PM 55 °F 47 °F 67% 30.31 in 17 mi NNE 8.1 mph - -  
11:50 PM 55.4 °F 48.2 °F 77% 30.30 in - NE 8.1 mph - N/A   Clear